Radiation Dose at Monitoring Post of Fukushima Daini Nuclear Power Station
Date,Time,MP-1(microSv/h),MP-2(microSv/h),MP-3(microSv/h),MP-4(microSv/h),MP-5(microSv/h),MP-6(microSv/h),MP-7(microSv/h),Wind Direction,Wind Velocity(m/s),Rain
2015/02/02,00:00,0.490,0.349,0.564,0.508,0.489,0.245,0.225,north-northwest,1.6,No
2015/02/02,00:10,0.491,0.348,0.565,0.506,0.490,0.245,0.224,northwest,1.4,No
2015/02/02,00:20,0.491,0.348,0.566,0.506,0.488,0.245,0.223,northwest,2.1,No
2015/02/02,00:30,0.487,0.349,0.564,0.507,0.490,0.245,0.224,northwest,4.3,No
2015/02/02,00:40,0.490,0.348,0.566,0.507,0.488,0.246,0.224,north-northwest,3.7,No
2015/02/02,00:50,0.488,0.348,0.567,0.507,0.487,0.246,0.225,northwest,5.1,No
2015/02/02,01:00,0.489,0.348,0.564,0.505,0.487,0.245,0.224,north-northwest,4.1,No
2015/02/02,01:10,0.489,0.348,0.565,0.507,0.488,0.245,0.223,north-northwest,3.4,No
2015/02/02,01:20,0.489,0.349,0.566,0.507,0.488,0.245,0.223,northwest,2.2,No
2015/02/02,01:30,0.488,0.347,0.566,0.507,0.488,0.245,0.225,north-northwest,1.4,No
2015/02/02,01:40,0.488,0.347,0.565,0.507,0.489,0.244,0.225,north-northwest,1.7,No
2015/02/02,01:50,0.488,0.350,0.566,0.508,0.490,0.245,0.223,north,2.5,No
2015/02/02,02:00,0.490,0.349,0.564,0.507,0.490,0.246,0.223,north-northwest,3.3,No
2015/02/02,02:10,0.491,0.348,0.565,0.506,0.489,0.244,0.225,north-northwest,3.8,No
2015/02/02,02:20,0.489,0.348,0.565,0.507,0.488,0.245,0.224,north-northwest,2.5,No
2015/02/02,02:30,0.489,0.349,0.567,0.507,0.489,0.244,0.224,north,3.0,No
2015/02/02,02:40,0.489,0.349,0.565,0.509,0.488,0.245,0.224,north,3.1,No
2015/02/02,02:50,0.489,0.348,0.566,0.507,0.490,0.246,0.224,north-northwest,2.4,No
2015/02/02,03:00,0.489,0.349,0.564,0.507,0.489,0.245,0.224,north,2.5,No
2015/02/02,03:10,0.489,0.348,0.566,0.508,0.488,0.245,0.223,north,2.4,No
2015/02/02,03:20,0.490,0.349,0.566,0.507,0.490,0.245,0.224,north,2.7,No
2015/02/02,03:30,0.489,0.349,0.565,0.510,0.488,0.246,0.224,north,3.3,No
2015/02/02,03:40,0.489,0.350,0.567,0.508,0.488,0.244,0.224,north,2.8,No
2015/02/02,03:50,0.487,0.349,0.567,0.509,0.489,0.244,0.223,north,2.5,No
2015/02/02,04:00,0.488,0.348,0.566,0.509,0.489,0.245,0.223,north,2.8,No
2015/02/02,04:10,0.489,0.349,0.565,0.508,0.491,0.245,0.224,north,3.5,No
2015/02/02,04:20,0.490,0.349,0.566,0.508,0.490,0.244,0.224,north,2.5,No
2015/02/02,04:30,0.489,0.347,0.567,0.509,0.490,0.246,0.223,north,2.7,No
2015/02/02,04:40,0.486,0.348,0.566,0.508,0.489,0.244,0.224,north,2.5,No
2015/02/02,04:50,0.487,0.348,0.567,0.509,0.490,0.244,0.224,north,3.4,No
2015/02/02,05:00,0.488,0.348,0.565,0.508,0.489,0.245,0.224,north,3.1,No
2015/02/02,05:10,0.489,0.348,0.566,0.508,0.492,0.245,0.225,north,3.5,No
2015/02/02,05:20,0.488,0.348,0.567,0.508,0.489,0.245,0.225,north,3.9,No
2015/02/02,05:30,0.488,0.349,0.566,0.507,0.489,0.245,0.223,north,4.6,No
2015/02/02,05:40,0.488,0.350,0.568,0.509,0.491,0.245,0.224,north,5.0,No
2015/02/02,05:50,0.489,0.349,0.567,0.508,0.491,0.245,0.224,north-northwest,6.5,No
2015/02/02,06:00,0.488,0.350,0.566,0.509,0.488,0.244,0.224,north,6.2,No
2015/02/02,06:10,0.488,0.348,0.566,0.508,0.490,0.245,0.224,north-northwest,6.3,No
2015/02/02,06:20,0.488,0.348,0.567,0.509,0.489,0.245,0.223,north-northwest,6.1,No
2015/02/02,06:30,0.488,0.348,0.566,0.509,0.489,0.245,0.222,north-northwest,5.5,No
2015/02/02,06:40,0.486,0.348,0.567,0.507,0.488,0.245,0.224,north-northwest,5.3,No
2015/02/02,06:50,0.488,0.349,0.565,0.508,0.488,0.245,0.224,north-northwest,4.9,No
2015/02/02,07:00,0.487,0.349,0.566,0.508,0.490,0.243,0.224,north-northwest,4.2,No
2015/02/02,07:10,0.488,0.349,0.565,0.509,0.488,0.245,0.223,north,4.0,No
2015/02/02,07:20,0.486,0.347,0.566,0.508,0.489,0.244,0.224,north,3.1,No
2015/02/02,07:30,0.487,0.347,0.568,0.508,0.490,0.244,0.224,north,2.9,No
2015/02/02,07:40,0.487,0.349,0.567,0.508,0.489,0.244,0.223,north,2.6,No
2015/02/02,07:50,0.487,0.348,0.567,0.507,0.489,0.245,0.223,north,2.4,No
2015/02/02,08:00,0.487,0.348,0.566,0.509,0.489,0.245,0.223,north-northwest,2.5,No
2015/02/02,08:10,0.488,0.349,0.566,0.509,0.487,0.244,0.223,north-northwest,1.9,No
2015/02/02,08:20,0.488,0.349,0.566,0.509,0.488,0.244,0.222,northwest,2.6,No
2015/02/02,08:30,0.487,0.348,0.566,0.510,0.490,0.244,0.223,north-northwest,1.4,No
2015/02/02,08:40,0.487,0.348,0.567,0.508,0.490,0.245,0.222,north-northwest,1.5,No
2015/02/02,08:50,0.489,0.348,0.567,0.509,0.488,0.245,0.223,west-northwest,0.9,No
2015/02/02,09:00,0.488,0.349,0.567,0.509,-,0.246,0.223,-,CALM,No
2015/02/02,09:10,0.488,0.349,0.568,0.510,-,0.245,0.224,west-northwest,1.4,No
2015/02/02,09:20,0.488,0.347,0.567,0.509,-,0.244,0.224,west-northwest,1.4,No
2015/02/02,09:30,0.488,0.349,0.567,0.512,-,0.244,0.223,west-southwest,0.8,No
2015/02/02,09:40,0.489,0.349,0.567,0.509,-,0.244,0.223,west,1.5,No
2015/02/02,09:50,0.489,0.348,0.568,0.509,-,0.243,0.222,west-northwest,2.3,No
2015/02/02,10:00,0.490,0.349,0.566,0.511,-,0.243,0.222,northwest,1.2,No
2015/02/02,10:10,0.487,0.349,0.569,0.511,-,0.244,0.222,west,3.9,No
2015/02/02,10:20,0.490,0.349,0.568,0.511,-,0.245,0.223,west-northwest,2.8,No
2015/02/02,10:30,0.488,0.349,0.568,0.511,-,0.245,0.222,west,4.3,No
2015/02/02,10:40,0.486,0.349,0.569,0.511,-,0.245,0.224,northwest,2.0,No
2015/02/02,10:50,0.488,0.349,0.568,0.511,-,0.245,0.223,north-northwest,3.0,No
2015/02/02,11:00,0.487,0.352,0.568,0.511,-,0.246,0.224,northwest,3.3,No
2015/02/02,11:10,0.490,0.351,0.569,0.512,-,0.246,0.224,north-northwest,4.2,No
2015/02/02,11:20,0.492,0.351,0.567,0.512,-,0.245,0.223,west-northwest,4.8,No
2015/02/02,11:30,0.490,0.352,0.568,0.511,-,0.247,0.224,northwest,4.3,No
2015/02/02,11:40,0.491,0.351,0.568,0.511,-,0.246,0.224,northwest,4.8,No
2015/02/02,11:50,0.490,0.351,0.568,0.514,-,0.246,0.224,northwest,4.4,No
2015/02/02,12:00,0.489,0.351,0.567,0.513,-,0.246,0.225,northwest,4.5,No
2015/02/02,12:10,0.491,0.351,0.569,0.514,-,0.246,0.223,west-northwest,4.6,No
2015/02/02,12:20,0.490,0.352,0.570,0.513,-,0.246,0.225,west-northwest,5.9,No
2015/02/02,12:30,0.489,0.352,0.568,0.514,-,0.246,0.224,west,6.5,No
2015/02/02,12:40,0.492,0.353,0.569,0.513,-,0.246,0.224,west-northwest,4.2,No
2015/02/02,12:50,0.490,0.352,0.570,0.516,-,0.247,0.225,west-northwest,3.5,No
2015/02/02,13:00,0.491,0.353,0.568,0.515,-,0.247,0.225,northwest,5.0,No
2015/02/02,13:10,0.495,0.352,0.572,0.516,-,0.246,0.224,west-northwest,4.1,No
2015/02/02,13:20,0.493,0.353,0.570,0.517,-,0.246,0.224,west,5.0,No
2015/02/02,13:30,0.492,0.352,0.571,0.517,-,0.246,0.224,northwest,4.0,No
2015/02/02,13:40,0.494,0.353,0.569,0.517,-,0.247,0.226,west-northwest,6.1,No
2015/02/02,13:50,0.493,0.353,0.570,0.518,-,0.248,0.225,west-northwest,7.0,No
2015/02/02,14:00,0.494,0.353,0.571,0.520,-,0.248,0.224,northwest,3.8,No
2015/02/02,14:10,0.494,0.353,0.573,0.517,-,0.246,0.226,northwest,3.6,No
2015/02/02,14:20,0.493,0.354,0.571,0.519,-,0.248,0.225,northwest,1.3,No
2015/02/02,14:30,0.493,0.354,0.571,0.519,-,0.246,0.226,northwest,1.7,No
2015/02/02,14:40,0.497,0.354,0.572,0.517,-,0.247,0.224,north,1.5,No
2015/02/02,14:50,0.493,0.355,0.571,0.519,-,0.248,0.225,west-northwest,2.8,No
2015/02/02,15:00,0.494,0.355,0.573,0.519,-,0.247,0.226,northwest,3.9,No
2015/02/02,15:10,0.496,0.355,0.574,0.520,-,0.247,0.227,northwest,2.0,No
2015/02/02,15:20,0.496,0.355,0.573,0.519,-,0.249,0.226,north-northwest,1.6,No
2015/02/02,15:30,0.495,0.355,0.573,0.519,-,0.247,0.225,north-northwest,1.9,No
2015/02/02,15:40,0.498,0.354,0.573,0.518,-,0.247,0.225,north,2.3,No
2015/02/02,15:50,0.497,0.355,0.572,0.520,-,0.249,0.225,north-northwest,2.5,No
2015/02/02,16:00,0.496,0.354,0.573,0.520,-,0.248,0.225,north-northwest,2.2,No
2015/02/02,16:10,0.495,0.355,0.574,0.520,-,0.247,0.226,north-northwest,2.8,No
2015/02/02,16:20,0.499,0.354,0.573,0.521,-,0.248,0.226,northwest,2.3,No
2015/02/02,16:30,0.497,0.355,0.573,0.520,-,0.248,0.225,northwest,1.8,No
2015/02/02,16:40,0.498,0.355,0.574,0.521,-,0.248,0.225,north-northwest,1.0,No
2015/02/02,16:50,0.497,0.355,0.574,0.520,-,0.247,0.227,northwest,1.3,No
2015/02/02,17:00,0.496,0.355,0.574,0.522,-,0.249,0.226,northwest,0.5,No
2015/02/02,17:10,0.497,0.354,0.574,0.522,-,0.248,0.225,west-northwest,0.8,No
2015/02/02,17:20,0.496,0.355,0.573,0.521,-,0.247,0.226,north,0.7,No
2015/02/02,17:30,0.496,0.355,0.573,0.522,-,0.249,0.227,north-northwest,0.8,No
2015/02/02,17:40,0.496,0.355,0.575,0.521,-,0.249,0.225,north-northwest,1.0,No
2015/02/02,17:50,0.495,0.354,0.573,0.522,-,0.248,0.225,northwest,1.0,No
2015/02/02,18:00,0.497,0.356,0.574,0.520,-,0.247,0.226,west-northwest,1.7,No
2015/02/02,18:10,0.498,0.354,0.574,0.522,-,0.250,0.227,north,0.8,No
2015/02/02,18:20,0.496,0.356,0.573,0.522,-,0.249,0.226,north-northwest,1.0,No
2015/02/02,18:30,0.495,0.355,0.572,0.522,-,0.249,0.226,northwest,0.8,No
2015/02/02,18:40,0.496,0.356,0.575,0.521,-,0.250,0.226,west-southwest,1.9,No
2015/02/02,18:50,0.496,0.355,0.575,0.523,-,0.250,0.226,west,1.0,No
2015/02/02,19:00,0.498,0.355,0.573,0.521,-,0.249,0.227,west-northwest,1.1,No
2015/02/02,19:10,0.495,0.355,0.575,0.522,-,0.248,0.226,west,1.2,No
2015/02/02,19:20,0.496,0.355,0.575,0.522,-,0.249,0.226,west,0.9,No
2015/02/02,19:30,0.496,0.355,0.573,0.523,-,0.249,0.225,west,1.0,No
2015/02/02,19:40,0.496,0.353,0.574,0.522,-,0.249,0.226,west-northwest,2.4,No
2015/02/02,19:50,0.497,0.355,0.575,0.523,-,0.249,0.227,west-northwest,3.1,No
2015/02/02,20:00,0.496,0.354,0.575,0.522,-,0.248,0.227,west-northwest,3.0,No
2015/02/02,20:10,0.496,0.355,0.574,0.521,-,0.248,0.227,west-northwest,2.7,No
2015/02/02,20:20,0.495,0.355,0.574,0.522,-,0.248,0.227,west-northwest,1.7,No
2015/02/02,20:30,0.495,0.354,0.576,0.524,-,0.249,0.227,west-northwest,1.8,No
2015/02/02,20:40,0.497,0.355,0.575,0.522,-,0.250,0.227,west-northwest,2.8,No
2015/02/02,20:50,0.496,0.356,0.574,0.524,-,0.249,0.226,west-northwest,2.2,No
2015/02/02,21:00,0.496,0.355,0.577,0.522,-,0.250,0.227,west-northwest,2.4,No
2015/02/02,21:10,0.496,0.355,0.575,0.522,-,0.249,0.226,west,2.5,No
2015/02/02,21:20,0.495,0.355,0.576,0.523,-,0.249,0.227,west-northwest,4.1,No
2015/02/02,21:30,0.495,0.354,0.574,0.522,-,0.249,0.226,west-northwest,2.3,No
2015/02/02,21:40,0.496,0.355,0.575,0.522,-,0.249,0.226,west-northwest,2.8,No
2015/02/02,21:50,0.495,0.354,0.575,0.522,-,0.249,0.226,west-northwest,3.1,No
2015/02/02,22:00,0.494,0.355,0.574,0.521,-,0.248,0.227,northwest,2.6,No
2015/02/02,22:10,0.496,0.355,0.575,0.522,-,0.249,0.226,northwest,2.2,No
2015/02/02,22:20,0.496,0.355,0.575,0.523,-,0.248,0.227,north-northwest,1.3,No
2015/02/02,22:30,0.496,0.354,0.575,0.524,-,0.248,0.227,north-northwest,2.9,No
2015/02/02,22:40,0.495,0.355,0.575,0.523,-,0.249,0.226,northwest,6.7,No
2015/02/02,22:50,0.495,0.354,0.574,0.524,-,0.248,0.226,northwest,7.4,No
2015/02/02,23:00,0.496,0.354,0.575,0.525,-,0.249,0.227,northwest,7.3,No
2015/02/02,23:10,0.496,0.355,0.576,0.524,-,0.248,0.226,northwest,7.0,No
2015/02/02,23:20,0.495,0.353,0.575,0.524,-,0.249,0.226,northwest,7.8,No
2015/02/02,23:30,0.495,0.355,0.575,0.526,-,0.248,0.226,northwest,8.2,No
2015/02/02,23:40,0.496,0.354,0.576,0.524,-,0.250,0.228,northwest,7.5,No
2015/02/02,23:50,0.495,0.355,0.575,0.524,-,0.248,0.226,north-northwest,6.9,No
